QPF
0.00 0.00 0.00 0.00 0.00 0.00 0.00 0.00 0.00 0.00 0.01 0.01 0.01 0.02 0.02 0.03 0.05 0.05 0.04 0.04 0.03 0.01 0.00 0.00 0.00 0.00 0.00 0.00 0.00 0.00 0.00 0.00 0.00 0.00 0.00 0.00 0.00 0.00 0.00 0.00 0.00 0.00 0.00 0.00 0.00 0.00 0.00 0.00 0.00
0.00 0.00 0.00 0.00 0.00 0.00 0.00 0.01 0.01 0.01 0.00 0.01 0.02 0.01 0.00 0.00 0.00 0.00 0.01 0.03 0.02 0.00 0.00 0.00 0.00 0.00 0.00 0.00 0.00 0.00 0.00 0.00 0.01 0.01 0.00 0.00 0.00 0.00 0.00 0.00 0.00 0.00 0.00 0.00 0.00 0.00 0.00 0.00 0.00
0.00 0.00 0.00 0.00 0.00 0.00 0.01 0.02 0.01 0.00 0.01 0.02 0.03 0.01 0.00 0.00 0.00 0.00 0.01 0.02 0.02 0.00 0.00 0.00 0.00 0.00 0.00 0.00 0.00 0.00 0.00 0.00 0.00 0.01 0.00 0.00 0.00 0.00 0.00 0.00 0.00 0.00 0.00 0.01 0.01 0.00 0.00 0.00 0.00
0.00 0.00 0.00 0.00 0.00 0.00 0.01 0.01 0.01 0.00 0.00 0.01 0.01 0.01 0.00 0.00 0.00 0.00 0.01 0.02 0.01 0.00 0.00 0.00 0.00 0.00 0.00 0.00 0.00 0.00 0.00 0.00 0.00 0.00 0.00 0.00 0.00 0.00 0.00 0.01 0.01 0.01 0.01 0.01 0.01 0.00 0.00 0.00 0.00
0.00 0.00 0.00 0.00 0.00 0.00 0.01 0.00 0.00 0.00 0.00 0.00 0.00 0.00 0.00 0.00 0.00 0.01 0.01 0.02 0.01 0.01 0.00 0.00 0.00 0.00 0.00 0.00 0.00 0.00 0.00 0.00 0.00 0.00 0.00 0.00 0.00 0.00 0.01 0.01 0.02 0.02 0.02 0.02 0.01 0.00 0.00 0.00 0.00
0.00 0.00 0.00 0.00 0.00 0.00 0.00 0.00 0.00 0.00 0.00 0.00 0.00 0.00 0.00 0.01 0.01 0.02 0.03 0.04 0.02 0.01 0.00 0.00 0.00 0.00 0.00 0.00 0.00 0.00 0.00 0.00 0.00 0.00 0.00 0.00 0.00 0.00 0.01 0.02 0.02 0.03 0.04 0.03 0.02 0.01 0.00 0.00 0.00
0.00 0.00 0.00 0.00 0.00 0.00 0.00 0.00 0.00 0.00 0.00 0.00 0.00 0.00 0.00 0.01 0.04 0.07 0.07 0.08 0.06 0.05 0.04 0.01 0.00 0.00 0.00 0.00 0.00 0.00 0.00 0.00 0.00 0.00 0.00 0.00 0.00 0.01 0.02 0.03 0.03 0.03 0.02 0.01 0.01 0.00 0.00 0.00 0.00
0.00 0.00 0.00 0.00 0.00 0.00 0.00 0.00 0.00 0.00 0.00 0.00 0.00 0.00 0.01 0.01 0.04 0.11 0.13 0.16 0.17 0.18 0.20 0.10 0.03 0.00 0.00 0.00 0.00 0.00 0.00 0.00 0.00 0.00 0.00 0.00 0.01 0.02 0.02 0.02 0.01 0.01 0.00 0.00 0.00 0.00 0.00 0.00 0.00
0.00 0.00 0.00 0.00 0.00 0.00 0.00 0.00 0.00 0.00 0.00 0.00 0.00 0.00 0.00 0.01 0.04 0.10 0.15 0.22 0.28 0.36 0.41 0.35 0.10 0.01 0.00 0.00 0.00 0.00 0.00 0.00 0.00 0.00 0.00 0.01 0.02 0.03 0.02 0.01 0.00 0.00 0.00 0.00 0.00 0.00 0.00 0.00 0.00
0.00 0.00 0.00 0.00 0.00 0.00 0.00 0.00 0.00 0.00 0.00 0.00 0.00 0.00 0.00 0.02 0.05 0.12 0.18 0.30 0.44 0.42 0.39 0.28 0.08 0.02 0.01 0.00 0.00 0.00 0.00 0.00 0.00 0.00 0.00 0.01 0.02 0.02 0.01 0.00 0.00 0.00 0.00 0.00 0.00 0.00 0.00 0.00 0.00
0.00 0.00 0.00 0.00 0.00 0.00 0.00 0.00 0.00 0.00 0.00 0.00 0.00 0.00 0.00 0.01 0.04 0.07 0.12 0.26 0.40 0.30 0.18 0.11 0.09 0.06 0.02 0.00 0.00 0.00 0.00 0.00 0.01 0.01 0.00 0.01 0.01 0.01 0.01 0.00 0.00 0.00 0.00 0.00 0.00 0.00 0.00 0.00 0.00
0.00 0.00 0.00 0.00 0.00 0.00 0.00 0.00 0.00 0.00 0.00 0.00 0.00 0.00 0.00 0.00 0.01 0.04 0.07 0.15 0.16 0.14 0.10 0.08 0.08 0.06 0.04 0.02 0.01 0.01 0.01 0.01 0.01 0.00 0.00 0.01 0.01 0.01 0.00 0.00 0.00 0.00 0.00 0.00 0.00 0.00 0.00 0.00 0.00
0.00 0.00 0.00 0.00 0.00 0.00 0.00 0.00 0.00 0.00 0.00 0.00 0.00 0.00 0.00 0.00 0.01 0.04 0.08 0.13 0.14 0.15 0.12 0.10 0.09 0.06 0.03 0.02 0.00 0.00 0.00 0.00 0.00 0.00 0.00 0.01 0.00 0.00 0.00 0.00 0.00 0.00 0.00 0.00 0.00 0.00 0.00 0.00 0.00
0.00 0.00 0.00 0.00 0.00 0.00 0.00 0.00 0.00 0.00 0.00 0.00 0.00 0.00 0.00 0.00 0.01 0.04 0.10 0.18 0.27 0.38 0.33 0.16 0.08 0.03 0.02 0.01 0.00 0.00 0.00 0.00 0.00 0.00 0.00 0.00 0.00 0.00 0.00 0.00 0.00 0.00 0.00 0.00 0.00 0.00 0.00 0.00 0.00
0.00 0.00 0.00 0.00 0.00 0.00 0.00 0.00 0.00 0.00 0.00 0.00 0.00 0.00 0.00 0.00 0.02 0.04 0.09 0.16 0.32 0.52 0.48 0.22 0.07 0.01 0.01 0.00 0.00 0.00 0.00 0.00 0.01 0.01 0.00 0.00 0.00 0.00 0.00 0.00 0.00 0.00 0.00 0.00 0.00 0.00 0.00 0.00 0.00
0.00 0.00 0.00 0.00 0.00 0.00 0.00 0.00 0.00 0.00 0.00 0.00 0.00 0.00 0.00 0.00 0.01 0.03 0.08 0.16 0.32 0.56 0.58 0.28 0.06 0.01 0.01 0.00 0.00 0.00 0.00 0.00 0.00 0.00 0.00 0.00 0.00 0.00 0.00 0.00 0.00 0.00 0.00 0.01 0.01 0.01 0.01 0.01 0.01
0.00 0.00 0.00 0.00 0.00 0.00 0.00 0.00 0.00 0.00 0.00 0.00 0.00 0.00 0.00 0.00 0.01 0.03 0.07 0.19 0.36 0.44 0.38 0.19 0.06 0.03 0.03 0.02 0.01 0.00 0.00 0.00 0.00 0.00 0.00 0.00 0.00 0.00 0.00 0.00 0.00 0.00 0.01 0.02 0.03 0.04 0.04 0.04 0.04
0.00 0.00 0.00 0.00 0.00 0.00 0.00 0.00 0.00 0.00 0.00 0.00 0.00 0.00 0.00 0.00 0.01 0.02 0.05 0.14 0.26 0.28 0.19 0.10 0.07 0.09 0.06 0.03 0.02 0.01 0.01 0.01 0.01 0.01 0.01 0.01 0.01 0.01 0.01 0.01 0.01 0.01 0.03 0.05 0.07 0.07 0.06 0.05 0.03
0.00 0.00 0.00 0.00 0.00 0.00 0.00 0.00 0.00 0.00 0.00 0.00 0.00 0.00 0.00 0.00 0.01 0.03 0.05 0.09 0.13 0.12 0.10 0.10 0.11 0.12 0.12 0.10 0.06 0.04 0.03 0.02 0.02 0.03 0.03 0.05 0.05 0.05 0.05 0.04 0.04 0.03 0.03 0.03 0.03 0.03 0.03 0.03 0.02
0.00 0.00 0.00 0.00 0.00 0.00 0.00 0.00 0.00 0.00 0.00 0.00 0.00 0.00 0.00 0.00 0.01 0.02 0.04 0.07 0.09 0.09 0.09 0.11 0.12 0.12 0.12 0.11 0.07 0.06 0.05 0.06 0.07 0.08 0.10 0.10 0.10 0.09 0.07 0.06 0.04 0.03 0.02 0.02 0.01 0.01 0.01 0.00 0.00
0.00 0.00 0.00 0.00 0.00 0.00 0.00 0.00 0.00 0.00 0.00 0.00 0.00 0.00 0.00 0.00 0.01 0.01 0.02 0.02 0.03 0.04 0.04 0.05 0.05 0.06 0.07 0.07 0.08 0.08 0.07 0.07 0.09 0.10 0.09 0.09 0.09 0.09 0.08 0.05 0.03 0.01 0.01 0.01 0.01 0.00 0.00 0.00 0.00
0.00 0.00 0.00 0.00 0.00 0.00 0.00 0.00 0.00 0.00 0.00 0.00 0.00 0.00 0.00 0.00 0.00 0.00 0.00 0.00 0.00 0.00 0.01 0.01 0.01 0.01 0.02 0.03 0.04 0.05 0.05 0.04 0.04 0.04 0.04 0.04 0.04 0.03 0.03 0.02 0.01 0.01 0.00 0.00 0.00 0.00 0.00 0.00 0.00
0.00 0.00 0.00 0.00 0.00 0.00 0.00 0.00 0.00 0.00 0.00 0.00 0.00 0.00 0.00 0.00 0.00 0.00 0.00 0.00 0.00 0.00 0.00 0.00 0.00 0.00 0.00 0.01 0.01 0.02 0.02 0.01 0.01 0.01 0.01 0.01 0.01 0.00 0.00 0.00 0.00 0.00 0.00 0.00 0.00 0.00 0.00 0.00 0.00
0.00 0.00 0.00 0.00 0.00 0.00 0.00 0.00 0.00 0.00 0.00 0.00 0.00 0.00 0.00 0.00 0.00 0.00 0.00 0.00 0.00 0.00 0.00 0.00 0.00 0.00 0.00 0.00 0.00 0.00 0.00 0.00 0.00 0.00 0.00 0.00 0.00 0.00 0.00 0.00 0.00 0.00 0.00 0.00 0.00 0.00 0.00 0.00 0.00
0.00 0.00 0.00 0.00 0.00 0.00 0.00 0.00 0.00 0.00 0.00 0.00 0.00 0.00 0.00 0.00 0.00 0.00 0.00 0.00 0.00 0.00 0.00 0.00 0.00 0.00 0.00 0.00 0.00 0.00 0.00 0.00 0.00 0.00 0.00 0.00 0.00 0.00 0.00 0.00 0.00 0.00 0.00 0.00 0.00 0.00 0.00 0.00 0.00
0.00 0.00 0.00 0.00 0.00 0.00 0.00 0.00 0.00 0.00 0.00 0.02 0.02 0.01 0.00 0.00 0.00 0.00 0.00 0.00 0.00 0.00 0.00 0.00 0.00 0.00 0.00 0.00 0.00 0.00 0.00 0.00 0.00 0.00 0.00 0.00 0.00 0.00 0.00 0.00 0.00 0.00 0.00 0.00 0.00 0.00 0.00 0.00 0.01
0.00 0.00 0.00 0.00 0.00 0.00 0.00 0.00 0.00 0.00 0.01 0.03 0.04 0.03 0.01 0.00 0.00 0.00 0.00 0.00 0.00 0.00 0.00 0.00 0.00 0.00 0.00 0.00 0.00 0.00 0.00 0.00 0.00 0.00 0.00 0.00 0.00 0.00 0.00 0.00 0.00 0.00 0.00 0.00 0.01 0.01 0.01 0.01 0.01
0.00 0.00 0.00 0.00 0.00 0.00 0.00 0.00 0.00 0.00 0.01 0.01 0.02 0.02 0.01 0.00 0.00 0.00 0.00 0.00 0.00 0.00 0.00 0.00 0.00 0.00 0.00 0.00 0.00 0.00 0.00 0.00 0.00 0.00 0.00 0.00 0.00 0.00 0.00 0.00 0.00 0.00 0.00 0.00 0.01 0.01 0.01 0.01 0.01
0.00 0.00 0.00 0.00 0.00 0.00 0.00 0.00 0.00 0.00 0.01 0.02 0.04 0.03 0.01 0.00 0.00 0.00 0.00 0.00 0.00 0.00 0.00 0.00 0.00 0.00 0.00 0.00 0.00 0.00 0.00 0.00 0.00 0.00 0.00 0.00 0.00 0.00 0.00 0.00 0.00 0.00 0.00 0.00 0.00 0.00 0.00 0.00 0.00
0.00 0.00 0.00 0.00 0.00 0.00 0.00 0.01 0.00 0.00 0.01 0.03 0.05 0.04 0.02 0.00 0.00 0.00 0.00 0.00 0.00 0.00 0.00 0.00 0.00 0.00 0.00 0.00 0.00 0.00 0.00 0.00 0.00 0.00 0.00 0.00 0.00 0.00 0.00 0.00 0.00 0.00 0.00 0.00 0.00 0.00 0.00 0.00 0.00
MSLP
1011.22 1012.31 1013.56 1014.74 1015.64 1016.11 1016.10 1015.65 1014.91 1014.07 1013.35 1012.89 1012.78 1012.98 1013.42 1013.95 1014.40 1014.65 1014.67 1014.46 1014.12 1013.75 1013.47 1013.35 1013.43 1013.66 1013.97 1014.29 1014.53 1014.67 1014.70 1014.65 1014.60 1014.60 1014.67 1014.83 1015.05 1015.29 1015.49 1015.61 1015.65 1015.61 1015.52 1015.43 1015.37 1015.35 1015.38 1015.43 1015.49
1011.90 1013.15 1014.43 1015.52 1016.22 1016.42 1016.10 1015.36 1014.38 1013.37 1012.55 1012.07 1011.97 1012.23 1012.72 1013.29 1013.78 1014.09 1014.16 1014.02 1013.76 1013.50 1013.33 1013.32 1013.48 1013.78 1014.14 1014.47 1014.73 1014.87 1014.90 1014.87 1014.83 1014.84 1014.93 1015.09 1015.30 1015.52 1015.69 1015.78 1015.79 1015.73 1015.63 1015.53 1015.45 1015.42 1015.42 1015.45 1015.47
1012.66 1013.98 1015.22 1016.15 1016.62 1016.53 1015.94 1014.97 1013.82 1012.72 1011.88 1011.42 1011.37 1011.68 1012.22 1012.82 1013.34 1013.66 1013.77 1013.68 1013.50 1013.32 1013.25 1013.32 1013.56 1013.90 1014.29 1014.64 1014.90 1015.05 1015.09 1015.08 1015.07 1015.10 1015.19 1015.35 1015.54 1015.73 1015.86 1015.92 1015.90 1015.82 1015.71 1015.60 1015.53 1015.50 1015.50 1015.51 1015.51
1013.39 1014.70 1015.81 1016.54 1016.75 1016.41 1015.60 1014.48 1013.25 1012.15 1011.36 1010.98 1011.02 1011.39 1011.97 1012.58 1013.10 1013.42 1013.53 1013.48 1013.36 1013.25 1013.25 1013.39 1013.67 1014.04 1014.43 1014.78 1015.03 1015.18 1015.24 1015.26 1015.28 1015.34 1015.45 1015.61 1015.78 1015.93 1016.03 1016.05 1016.00 1015.90 1015.80 1015.70 1015.65 1015.63 1015.64 1015.65 1015.65
1014.00 1015.19 1016.11 1016.60 1016.56 1016.02 1015.06 1013.88 1012.68 1011.67 1011.00 1010.75 1010.89 1011.33 1011.93 1012.54 1013.02 1013.33 1013.44 1013.41 1013.33 1013.29 1013.34 1013.52 1013.83 1014.19 1014.56 1014.88 1015.11 1015.25 1015.33 1015.37 1015.43 1015.53 1015.67 1015.84 1016.01 1016.13 1016.20 1016.19 1016.12 1016.02 1015.93 1015.86 1015.82 1015.83 1015.86 1015.88 1015.89
1014.41 1015.41 1016.07 1016.29 1016.03 1015.32 1014.30 1013.15 1012.05 1011.21 1010.72 1010.62 1010.88 1011.38 1011.99 1012.58 1013.03 1013.31 1013.42 1013.42 1013.39 1013.40 1013.51 1013.72 1014.02 1014.35 1014.67 1014.94 1015.13 1015.26 1015.34 1015.42 1015.52 1015.67 1015.85 1016.04 1016.21 1016.32 1016.37 1016.34 1016.26 1016.17 1016.09 1016.05 1016.05 1016.08 1016.13 1016.17 1016.18
1014.58 1015.32 1015.70 1015.65 1015.18 1014.36 1013.34 1012.28 1011.35 1010.71 1010.42 1010.49 1010.86 1011.41 1012.03 1012.59 1013.02 1013.28 1013.41 1013.46 1013.49 1013.57 1013.72 1013.94 1014.22 1014.51 1014.77 1014.96 1015.10 1015.19 1015.28 1015.38 1015.54 1015.74 1015.96 1016.18 1016.37 1016.48 1016.51 1016.48 1016.40 1016.32 1016.26 1016.24 1016.28 1016.34 1016.41 1016.46 1016.46
1014.52 1014.96 1015.05 1014.74 1014.10 1013.22 1012.23 1011.29 1010.56 1010.13 1010.04 1010.26 1010.73 1011.32 1011.93 1012.48 1012.89 1013.17 1013.34 1013.46 1013.58 1013.74 1013.94 1014.19 1014.44 1014.67 1014.85 1014.97 1015.04 1015.09 1015.17 1015.30 1015.49 1015.74 1016.01 1016.26 1016.46 1016.58 1016.61 1016.58 1016.50 1016.43 1016.40 1016.41 1016.46 1016.55 1016.63 1016.67 1016.67
1014.27 1014.43 1014.24 1013.71 1012.92 1012.00 1011.06 1010.27 1009.71 1009.48 1009.56 1009.91 1010.44 1011.06 1011.68 1012.21 1012.64 1012.96 1013.21 1013.43 1013.65 1013.90 1014.17 1014.43 1014.66 1014.83 1014.93 1014.96 1014.97 1014.98 1015.04 1015.18 1015.41 1015.70 1016.00 1016.28 1016.50 1016.62 1016.66 1016.62 1016.55 1016.49 1016.47 1016.51 1016.58 1016.67 1016.75 1016.79 1016.77
1013.92 1013.83 1013.40 1012.69 1011.80 1010.85 1009.98 1009.30 1008.90 1008.82 1009.03 1009.46 1010.04 1010.68 1011.30 1011.84 1012.31 1012.70 1013.04 1013.37 1013.71 1014.05 1014.38 1014.67 1014.87 1014.99 1015.01 1014.97 1014.91 1014.88 1014.93 1015.07 1015.32 1015.63 1015.96 1016.25 1016.48 1016.61 1016.64 1016.61 1016.55 1016.50 1016.50 1016.54 1016.62 1016.71 1016.78 1016.80 1016.76
1013.57 1013.27 1012.66 1011.82 1010.86 1009.92 1009.11 1008.53 1008.24 1008.26 1008.55 1009.03 1009.64 1010.28 1010.90 1011.47 1011.99 1012.46 1012.90 1013.35 1013.79 1014.21 1014.59 1014.88 1015.06 1015.13 1015.09 1014.99 1014.88 1014.82 1014.85 1015.00 1015.25 1015.57 1015.90 1016.20 1016.43 1016.56 1016.60 1016.57 1016.52 1016.48 1016.48 1016.53 1016.61 1016.69 1016.75 1016.74 1016.67
1013.29 1012.87 1012.15 1011.23 1010.24 1009.31 1008.56 1008.05 1007.84 1007.92 1008.25 1008.75 1009.36 1010.00 1010.63 1011.23 1011.80 1012.34 1012.88 1013.41 1013.92 1014.39 1014.78 1015.07 1015.22 1015.24 1015.16 1015.02 1014.88 1014.81 1014.83 1014.98 1015.22 1015.54 1015.87 1016.17 1016.38 1016.51 1016.55 1016.53 1016.49 1016.46 1016.47 1016.52 1016.59 1016.66 1016.69 1016.66 1016.57
1013.17 1012.68 1011.90 1010.97 1009.99 1009.10 1008.39 1007.94 1007.78 1007.89 1008.22 1008.72 1009.32 1009.95 1010.60 1011.22 1011.83 1012.43 1013.01 1013.58 1014.12 1014.59 1014.97 1015.22 1015.33 1015.32 1015.21 1015.06 1014.92 1014.85 1014.88 1015.03 1015.27 1015.58 1015.89 1016.17 1016.38 1016.50 1016.55 1016.54 1016.51 1016.50 1016.51 1016.55 1016.61 1016.66 1016.67 1016.62 1016.50
1013.23 1012.72 1011.94 1011.03 1010.10 1009.26 1008.61 1008.21 1008.07 1008.19 1008.52 1009.01 1009.59 1010.22 1010.87 1011.51 1012.14 1012.75 1013.34 1013.90 1014.40 1014.82 1015.13 1015.32 1015.39 1015.35 1015.24 1015.10 1014.99 1014.95 1015.01 1015.16 1015.41 1015.69 1015.99 1016.24 1016.44 1016.56 1016.61 1016.62 1016.61 1016.61 1016.63 1016.66 1016.71 1016.73 1016.72 1016.64 1016.51
1013.44 1012.94 1012.21 1011.35 1010.49 1009.73 1009.14 1008.79 1008.67 1008.80 1009.11 1009.58 1010.15 1010.77 1011.42 1012.06 1012.68 1013.28 1013.82 1014.31 1014.73 1015.05 1015.27 1015.39 1015.41 1015.35 1015.26 1015.16 1015.11 1015.12 1015.22 1015.39 1015.63 1015.90 1016.16 1016.39 1016.57 1016.69 1016.75 1016.78 1016.79 1016.80 1016.82 1016.85 1016.88 1016.88 1016.84 1016.75 1016.60
1013.75 1013.27 1012.60 1011.83 1011.06 1010.39 1009.89 1009.58 1009.49 1009.61 1009.91 1010.36 1010.91 1011.52 1012.15 1012.78 1013.38 1013.93 1014.40 1014.78 1015.08 1015.28 1015.39 1015.43 1015.41 1015.35 1015.30 1015.27 1015.29 1015.37 1015.52 1015.72 1015.95 1016.20 1016.43 1016.62 1016.77 1016.88 1016.95 1016.99 1017.02 1017.05 1017.07 1017.09 1017.10 1017.08 1017.02 1016.92 1016.77
1014.06 1013.61 1013.02 1012.35 1011.70 1011.14 1010.72 1010.47 1010.40 1010.52 1010.80 1011.22 1011.75 1012.34 1012.96 1013.57 1014.13 1014.61 1014.99 1015.26 1015.43 1015.51 1015.52 1015.48 1015.43 1015.40 1015.41 1015.46 1015.57 1015.73 1015.93 1016.15 1016.38 1016.59 1016.77 1016.92 1017.03 1017.12 1017.19 1017.24 1017.28 1017.32 1017.35 1017.36 1017.35 1017.32 1017.25 1017.14 1017.00
1014.27 1013.87 1013.37 1012.83 1012.32 1011.89 1011.56 1011.37 1011.32 1011.42 1011.67 1012.06 1012.54 1013.11 1013.70 1014.28 1014.80 1015.23 1015.53 1015.71 1015.77 1015.75 1015.68 1015.60 1015.54 1015.55 1015.63 1015.77 1015.98 1016.21 1016.46 1016.69 1016.89 1017.06 1017.18 1017.27 1017.34 1017.40 1017.45 1017.50 1017.55 1017.59 1017.62 1017.62 1017.60 1017.56 1017.48 1017.38 1017.25
1014.31 1013.98 1013.59 1013.21 1012.87 1012.58 1012.35 1012.22 1012.18 1012.26 1012.46 1012.78 1013.21 1013.73 1014.29 1014.85 1015.34 1015.73 1015.99 1016.11 1016.11 1016.02 1015.91 1015.81 1015.78 1015.84 1016.00 1016.23 1016.52 1016.82 1017.10 1017.33 1017.50 1017.60 1017.65 1017.67 1017.68 1017.69 1017.72 1017.76 1017.80 1017.84 1017.86 1017.86 1017.84 1017.79 1017.72 1017.63 1017.52
1014.12 1013.89 1013.67 1013.48 1013.32 1013.19 1013.08 1013.00 1012.96 1012.99 1013.11 1013.35 1013.70 1014.16 1014.69 1015.22 1015.71 1016.10 1016.35 1016.46 1016.45 1016.36 1016.25 1016.17 1016.18 1016.30 1016.53 1016.83 1017.18 1017.53 1017.83 1018.04 1018.16 1018.20 1018.17 1018.11 1018.05 1018.01 1017.99 1018.01 1018.04 1018.07 1018.09 1018.08 1018.06 1018.01 1017.95 1017.87 1017.78
1013.69 1013.62 1013.60 1013.64 1013.70 1013.74 1013.75 1013.72 1013.66 1013.62 1013.64 1013.76 1014.02 1014.40 1014.89 1015.41 1015.92 1016.34 1016.63 1016.79 1016.82 1016.77 1016.70 1016.67 1016.73 1016.91 1017.19 1017.55 1017.94 1018.31 1018.60 1018.79 1018.86 1018.82 1018.72 1018.58 1018.45 1018.34 1018.28 1018.26 1018.27 1018.29 1018.30 1018.30 1018.27 1018.23 1018.17 1018.11 1018.03
1013.07 1013.20 1013.44 1013.74 1014.03 1014.26 1014.38 1014.38 1014.29 1014.16 1014.05 1014.05 1014.19 1014.49 1014.93 1015.45 1015.99 1016.48 1016.86 1017.10 1017.22 1017.25 1017.25 1017.28 1017.39 1017.62 1017.94 1018.32 1018.73 1019.10 1019.37 1019.52 1019.54 1019.44 1019.26 1019.06 1018.85 1018.69 1018.58 1018.53 1018.51 1018.51 1018.52 1018.51 1018.48 1018.44 1018.38 1018.32 1018.25
1012.34 1012.71 1013.22 1013.79 1014.33 1014.74 1014.96 1014.99 1014.85 1014.61 1014.37 1014.23 1014.24 1014.46 1014.85 1015.39 1015.98 1016.55 1017.04 1017.40 1017.63 1017.77 1017.85 1017.94 1018.10 1018.35 1018.69 1019.07 1019.47 1019.82 1020.06 1020.18 1020.15 1020.01 1019.78 1019.51 1019.26 1019.04 1018.89 1018.80 1018.76 1018.75 1018.74 1018.72 1018.69 1018.64 1018.58 1018.50 1018.41
1011.59 1012.22 1013.00 1013.82 1014.57 1015.14 1015.45 1015.49 1015.29 1014.95 1014.58 1014.30 1014.21 1014.34 1014.70 1015.25 1015.91 1016.58 1017.19 1017.68 1018.03 1018.27 1018.44 1018.60 1018.78 1019.04 1019.36 1019.73 1020.10 1020.42 1020.63 1020.72 1020.66 1020.48 1020.22 1019.93 1019.63 1019.38 1019.20 1019.08 1019.01 1018.98 1018.95 1018.92 1018.87 1018.81 1018.71 1018.60 1018.47
1010.91 1011.76 1012.78 1013.81 1014.73 1015.41 1015.78 1015.81 1015.56 1015.13 1014.65 1014.27 1014.08 1014.16 1014.50 1015.07 1015.80 1016.57 1017.29 1017.91 1018.38 1018.72 1018.97 1019.17 1019.38 1019.62 1019.92 1020.25 1020.58 1020.86 1021.05 1021.11 1021.04 1020.85 1020.57 1020.26 1019.95 1019.68 1019.47 1019.32 1019.23 1019.17 1019.13 1019.08 1019.00 1018.90 1018.77 1018.61 1018.42
1010.38 1011.39 1012.56 1013.72 1014.74 1015.48 1015.87 1015.89 1015.59 1015.10 1014.55 1014.10 1013.87 1013.91 1014.26 1014.87 1015.66 1016.52 1017.35 1018.07 1018.65 1019.08 1019.39 1019.63 1019.84 1020.07 1020.34 1020.62 1020.90 1021.15 1021.30 1021.35 1021.27 1021.08 1020.81 1020.50 1020.18 1019.90 1019.67 1019.51 1019.39 1019.31 1019.24 1019.16 1019.06 1018.91 1018.73 1018.50 1018.23
1010.03 1011.10 1012.32 1013.52 1014.55 1015.29 1015.66 1015.66 1015.34 1014.83 1014.26 1013.81 1013.57 1013.63 1014.01 1014.67 1015.52 1016.45 1017.37 1018.18 1018.84 1019.34 1019.71 1019.97 1020.18 1020.39 1020.62 1020.86 1021.10 1021.29 1021.42 1021.45 1021.36 1021.18 1020.92 1020.62 1020.31 1020.02 1019.79 1019.61 1019.47 1019.37 1019.27 1019.16 1019.02 1018.82 1018.58 1018.29 1017.94
1009.84 1010.88 1012.04 1013.18 1014.14 1014.82 1015.15 1015.13 1014.81 1014.32 1013.81 1013.40 1013.23 1013.35 1013.79 1014.50 1015.40 1016.39 1017.37 1018.25 1018.97 1019.52 1019.93 1020.21 1020.43 1020.62 1020.81 1021.01 1021.19 1021.35 1021.44 1021.44 1021.35 1021.16 1020.91 1020.62 1020.31 1020.03 1019.80 1019.61 1019.46 1019.33 1019.21 1019.07 1018.89 1018.65 1018.35 1017.99 1017.57
1009.80 1010.70 1011.70 1012.68 1013.50 1014.08 1014.35 1014.32 1014.06 1013.65 1013.25 1012.97 1012.91 1013.13 1013.65 1014.42 1015.37 1016.39 1017.41 1018.31 1019.07 1019.66 1020.09 1020.40 1020.62 1020.80 1020.96 1021.11 1021.24 1021.34 1021.39 1021.36 1021.24 1021.05 1020.79 1020.50 1020.21 1019.93 1019.70 1019.51 1019.35 1019.21 1019.07 1018.90 1018.69 1018.41 1018.06 1017.65 1017.18
1009.85 1010.54 1011.31 1012.07 1012.70 1013.15 1013.37 1013.36 1013.19 1012.93 1012.70 1012.59 1012.70 1013.05 1013.66 1014.49 1015.47 1016.51 1017.52 1018.43 1019.20 1019.80 1020.25 1020.57 1020.79 1020.96 1021.09 1021.19 1021.27 1021.31 1021.30 1021.21 1021.06 1020.84 1020.58 1020.29 1020.01 1019.74 1019.52 1019.33 1019.18 1019.03 1018.88 1018.70 1018.46 1018.15 1017.77 1017.31 1016.80
Thickness
5809 5811 5811 5800 5772 5747 5748 5769 5794 5799 5801 5813 5821 5813 5800 5789 5777 5767 5789 5796 5792 5787 5783 5781 5780 5778 5777 5776 5775 5774 5773 5771 5769 5767 5766 5764 5764 5763 5762 5762 5761 5761 5760 5759 5758 5758 5757 5757 5756
5809 5810 5801 5780 5751 5735 5751 5781 5794 5800 5807 5816 5818 5813 5802 5791 5795 5787 5786 5788 5787 5782 5779 5777 5775 5773 5772 5770 5769 5768 5766 5765 5763 5761 5760 5759 5759 5758 5758 5757 5757 5756 5755 5755 5754 5753 5752 5752 5751
5808 5807 5784 5762 5746 5744 5765 5792 5800 5810 5816 5815 5808 5808 5800 5790 5793 5787 5786 5784 5780 5777 5775 5772 5769 5767 5766 5764 5763 5762 5760 5758 5757 5755 5754 5753 5753 5753 5753 5752 5751 5751 5750 5749 5749 5748 5747 5746 5746
5802 5789 5775 5754 5749 5761 5779 5795 5804 5807 5812 5817 5810 5798 5797 5801 5798 5791 5785 5781 5776 5773 5770 5768 5766 5763 5761 5759 5758 5756 5755 5753 5752 5750 5749 5748 5747 5747 5747 5746 5745 5745 5744 5743 5743 5742 5740 5739 5738
5795 5776 5760 5747 5757 5780 5798 5806 5810 5807 5808 5812 5809 5789 5783 5796 5799 5790 5782 5778 5773 5769 5767 5764 5762 5760 5758 5756 5754 5752 5751 5750 5748 5747 5745 5744 5743 5742 5741 5740 5740 5739 5737 5736 5735 5735 5733 5732 5731
5778 5767 5748 5743 5765 5793 5806 5813 5816 5809 5804 5806 5802 5786 5777 5791 5790 5784 5780 5776 5773 5769 5765 5762 5759 5757 5755 5753 5751 5749 5748 5746 5745 5743 5742 5740 5739 5737 5736 5735 5734 5733 5732 5730 5728 5727 5726 5725 5723
5772 5762 5753 5759 5770 5786 5806 5820 5817 5807 5801 5804 5805 5782 5775 5782 5786 5784 5778 5774 5772 5769 5765 5762 5759 5756 5753 5750 5748 5746 5744 5742 5741 5740 5738 5736 5734 5733 5731 5730 5728 5727 5725 5724 5722 5721 5719 5718 5717
5784 5766 5759 5763 5774 5787 5815 5824 5824 5813 5803 5814 5809 5783 5771 5780 5787 5783 5776 5770 5768 5766 5764 5761 5758 5755 5751 5748 5745 5743 5741 5739 5738 5736 5735 5733 5731 5729 5727 5725 5723 5721 5720 5718 5716 5715 5714 5712 5711
5791 5759 5749 5765 5782 5799 5819 5819 5820 5823 5813 5810 5810 5801 5795 5792 5788 5779 5770 5763 5760 5759 5758 5757 5754 5751 5748 5745 5743 5740 5738 5736 5734 5732 5730 5728 5726 5724 5722 5720 5719 5717 5715 5713 5711 5709 5707 5706 5705
5778 5752 5765 5787 5799 5809 5817 5818 5817 5808 5800 5798 5798 5798 5796 5791 5783 5774 5766 5758 5755 5754 5754 5753 5751 5748 5745 5742 5740 5737 5735 5733 5730 5728 5726 5723 5721 5719 5717 5715 5713 5711 5709 5707 5704 5702 5700 5699 5698
5780 5770 5784 5797 5811 5818 5816 5818 5820 5801 5789 5797 5796 5793 5791 5785 5779 5772 5764 5758 5754 5752 5749 5747 5746 5743 5741 5739 5737 5734 5731 5728 5726 5724 5722 5719 5716 5714 5712 5709 5706 5704 5702 5700 5698 5696 5694 5693 5692
5783 5788 5795 5802 5818 5821 5816 5816 5812 5808 5806 5818 5816 5807 5795 5784 5777 5769 5761 5755 5751 5746 5744 5743 5741 5737 5736 5736 5734 5731 5728 5725 5722 5720 5717 5714 5712 5709 5706 5703 5700 5698 5696 5693 5691 5689 5687 5685 5684
5782 5788 5800 5807 5813 5820 5820 5813 5811 5811 5820 5820 5814 5803 5792 5783 5773 5765 5759 5751 5743 5738 5736 5736 5737 5734 5733 5732 5731 5730 5727 5723 5719 5715 5713 5710 5707 5703 5700 5697 5694 5691 5689 5686 5684 5682 5681 5679 5677
5784 5789 5795 5802 5808 5815 5811 5810 5809 5811 5817 5810 5802 5793 5786 5778 5768 5760 5754 5748 5742 5737 5732 5733 5733 5733 5731 5728 5727 5726 5723 5718 5713 5708 5706 5703 5700 5696 5692 5688 5685 5684 5682 5680 5677 5674 5672 5670 5669
5786 5779 5783 5794 5803 5807 5803 5792 5801 5812 5810 5798 5790 5782 5775 5769 5763 5756 5753 5749 5746 5740 5734 5734 5731 5729 5726 5724 5722 5719 5715 5711 5706 5701 5698 5695 5691 5686 5682 5678 5675 5672 5671 5669 5665 5662 5661 5659 5657
5772 5764 5757 5777 5794 5801 5787 5768 5793 5806 5798 5782 5774 5768 5762 5758 5755 5752 5750 5747 5745 5742 5736 5731 5728 5724 5720 5717 5714 5710 5706 5701 5696 5692 5688 5684 5680 5677 5672 5668 5664 5661 5658 5655 5652 5648 5646 5643 5641
5747 5740 5747 5763 5786 5789 5779 5766 5787 5797 5789 5772 5763 5757 5753 5748 5744 5742 5742 5740 5738 5735 5730 5724 5721 5718 5715 5712 5707 5702 5697 5692 5687 5682 5677 5673 5669 5665 5661 5657 5653 5650 5647 5643 5639 5635 5631 5628 5627
5726 5733 5740 5748 5770 5775 5765 5764 5777 5782 5779 5766 5758 5752 5748 5741 5736 5735 5733 5731 5728 5725 5720 5716 5713 5710 5708 5704 5699 5693 5687 5681 5676 5671 5666 5662 5658 5653 5650 5645 5642 5638 5634 5630 5625 5621 5618 5614 5611
5735 5732 5732 5751 5770 5761 5757 5759 5765 5769 5767 5758 5751 5748 5743 5737 5733 5730 5726 5723 5719 5715 5712 5709 5705 5701 5698 5694 5687 5680 5672 5666 5662 5657 5652 5649 5645 5642 5638 5634 5630 5626 5621 5616 5611 5607 5602 5597 5593
5732 5724 5729 5746 5763 5760 5750 5748 5756 5761 5759 5756 5750 5745 5740 5734 5728 5723 5719 5715 5710 5706 5703 5699 5695 5691 5688 5683 5677 5669 5662 5655 5649 5644 5640 5637 5633 5630 5626 5621 5616 5611 5605 5600 5595 5590 5583 5577 5570
5727 5723 5728 5734 5752 5754 5746 5732 5738 5742 5746 5744 5741 5740 5736 5732 5725 5719 5713 5708 5704 5699 5695 5690 5685 5681 5676 5672 5665 5658 5651 5645 5639 5634 5628 5624 5620 5616 5611 5605 5600 5594 5588 5581 5576 5569 5563 5556 5549
5719 5741 5740 5739 5733 5722 5734 5701 5716 5721 5722 5725 5726 5727 5725 5722 5718 5712 5706 5700 5695 5691 5686 5681 5675 5669 5663 5658 5652 5645 5637 5630 5624 5619 5614 5610 5606 5600 5595 5589 5583 5577 5570 5563 5557 5551 5544 5537 5530
5730 5749 5745 5741 5731 5718 5720 5699 5699 5708 5704 5709 5713 5715 5713 5711 5708 5703 5698 5693 5688 5683 5677 5669 5662 5655 5649 5644 5638 5631 5624 5617 5611 5606 5601 5595 5590 5584 5578 5573 5566 5560 5553 5547 5541 5535 5528 5522 5515
5745 5743 5737 5723 5707 5693 5710 5699 5692 5703 5709 5708 5707 5706 5704 5701 5698 5693 5689 5684 5679 5673 5665 5657 5649 5642 5636 5631 5625 5618 5610 5603 5597 5591 5585 5579 5574 5569 5564 5558 5551 5545 5539 5534 5528 5522 5516 5511 5504
5736 5711 5686 5684 5672 5678 5708 5700 5699 5716 5719 5714 5707 5701 5697 5694 5690 5685 5679 5673 5667 5661 5653 5645 5638 5630 5624 5618 5612 5605 5598 5591 5584 5578 5571 5565 5560 5554 5549 5543 5537 5532 5527 5522 5517 5511 5506 5500 5495
5723 5708 5680 5666 5664 5675 5697 5690 5700 5721 5718 5710 5703 5697 5692 5687 5684 5678 5671 5665 5658 5650 5642 5634 5626 5619 5613 5607 5599 5593 5587 5580 5573 5566 5560 5553 5547 5541 5536 5531 5525 5521 5517 5512 5506 5500 5494 5489 5484
5718 5707 5710 5689 5677 5670 5674 5686 5692 5704 5701 5698 5695 5691 5685 5681 5676 5671 5664 5656 5649 5640 5631 5623 5616 5609 5602 5596 5589 5582 5576 5568 5561 5554 5547 5541 5535 5530 5524 5520 5515 5511 5506 5501 5494 5488 5482 5477 5472
5729 5721 5693 5677 5662 5654 5666 5669 5675 5683 5688 5690 5687 5682 5678 5673 5668 5662 5655 5646 5638 5629 5620 5612 5606 5599 5592 5585 5579 5572 5564 5557 5550 5542 5535 5529 5523 5518 5514 5510 5506 5501 5495 5489 5483 5476 5471 5466 5461
5722 5716 5702 5682 5676 5662 5649 5665 5701 5700 5697 5690 5683 5677 5672 5665 5659 5652 5644 5636 5627 5617 5608 5601 5595 5589 5581 5574 5567 5559 5552 5545 5538 5531 5525 5519 5514 5509 5506 5502 5497 5492 5485 5479 5472 5465 5460 5456 5452
5720 5713 5701 5677 5671 5667 5658 5671 5710 5707 5697 5688 5679 5673 5666 5659 5652 5644 5634 5624 5614 5604 5596 5590 5584 5578 5570 5563 5556 5548 5541 5534 5527 5521 5515 5510 5506 5502 5499 5494 5489 5483 5476 5469 5462 5456 5451 5446 5443